Baku, Azerbaijan

6:35 AM +04 on June 23, 2018 (GMT +0400)
Bina

Weather History for UBBB - March, 2018

Change the Weather History Date:

Thursday, March 22, 2018

  Actual Average (WUND) Record (WUND)
Temperature  
Mean Temperature 50 °F -  
Max Temperature 59 °F - - (-1)
Min Temperature 42 °F - - (-1)
Degree Days  
Heating Degree Days 14    
Moisture  
Dew Point 43 °F    
Average Humidity 71    
Maximum Humidity 100    
Minimum Humidity 49    
Precipitation  
Precipitation 0.00 in - - ()
Sea Level Pressure  
Sea Level Pressure 29.96 in    
Wind  
Wind Speed 11 mph ()    
Max Wind Speed 31 mph    
Max Gust Speed 40 mph    
Visibility 5.5 miles    
Events      
Averages and records for this station are not official NWS values.
T = Trace of Precipitation, MM = Missing Value Source: Averaged Metar Reports

Daily Weather History Graph

Daily Weather History Graph

Search for Another Location

Airport or City:

Astronomy

Mar. 22, 2018 Rise Set
Actual Time 6:40 AM +04 6:53 PM +04
Civil Twilight 6:13 AM +04 7:20 PM +04
Nautical Twilight 5:41 AM +04 7:52 PM +04
Astronomical Twilight 5:08 AM +04 8:25 PM +04
Moon 9:43 AM +04 (3/22) No Moon Set
Length of Visible Light 13h 07m
Length of Day
12h 13m
Waxing Crescent, 25% of the Moon is Illuminated
Mar 22
Waxing Crescent
Mar 24
First Quarter
Mar 31
Full
Apr 8
Last Quarter
Apr 16
New

Hourly Weather History & Observations

Time (+04) Temp. Windchill Dew Point Humidity Pressure Visibility Wind Dir Wind Speed Gust Speed Precip Events Conditions
12:00 AM 50.0 °F - 42.8 °F 76% 30.06 in - North 8.1 mph - N/A   Clear
12:30 AM 50.0 °F - 42.8 °F 76% 30.06 in - North 8.1 mph - N/A   Clear
1:00 AM 53 °F - - % 30.07 in 6 mi NNW 8.9 mph - -  
1:00 AM 51.8 °F - 42.8 °F 71% 30.06 in - NNW 8.1 mph - N/A   Clear
1:30 AM 51.8 °F - 42.8 °F 71% 30.06 in - West 5.8 mph - N/A   Clear
2:00 AM 50.0 °F - 41.0 °F 71% 30.06 in - NW 5.8 mph - N/A   Clear
2:30 AM 48.2 °F - 41.0 °F 76% 30.09 in - West 4.6 mph - N/A   Clear
3:00 AM 46.4 °F - 41.0 °F 81% 30.06 in - SSE 2.3 mph - N/A   Clear
3:30 AM 46.4 °F 45.2 °F 41.0 °F 81% 30.06 in - SSE 3.5 mph - N/A   Clear
4:00 AM 45 °F - 40 °F 77% 30.08 in 6 mi East 4.5 mph - -  
4:00 AM 42.8 °F 41.1 °F 39.2 °F 87% 30.06 in - SSE 3.5 mph - N/A   Clear
4:30 AM 42.8 °F 39.3 °F 41.0 °F 93% 30.06 in - SE 5.8 mph - N/A   Clear
5:00 AM 41.0 °F - 39.2 °F 93% 30.06 in - SSE 2.3 mph - N/A   Clear
5:30 AM 41.0 °F 37.1 °F 37.4 °F 87% 30.06 in - SSE 5.8 mph - N/A   Clear
6:00 AM 41.0 °F 35.2 °F 39.2 °F 93% 30.06 in - SE 9.2 mph - N/A   Clear
6:30 AM 42.8 °F 38.6 °F 41.0 °F 93% 30.06 in - SE 6.9 mph - N/A   Clear
7:00 AM 47 °F - 44 °F 83% 30.07 in 6 mi East 6.7 mph - -  
7:00 AM 41.0 °F 37.1 °F 41.0 °F 100% 30.06 in - SE 5.8 mph - N/A   Mist
7:30 AM 44.6 °F 41.4 °F 42.8 °F 93% 30.06 in 1.9 mi ESE 5.8 mph - N/A   Mist
8:00 AM 48.2 °F - 46.4 °F 93% 30.06 in - SSE 6.9 mph - N/A   Clear
8:30 AM 51.8 °F - 46.4 °F 82% 30.06 in - SSW 8.1 mph - N/A   Clear
9:00 AM 55.4 °F - 44.6 °F 67% 30.06 in - SSE 5.8 mph - N/A   Clear
9:30 AM 55.4 °F - 44.6 °F 67% 30.04 in - South 9.2 mph - N/A   Clear
10:00 AM 56 °F - 46 °F 59% 30.05 in 6 mi SE 11.2 mph - -  
10:00 AM 57.2 °F - 44.6 °F 63% 30.04 in - South 11.5 mph - N/A   Clear
11:00 AM 59.0 °F - 44.6 °F 59% 30.01 in - South 17.3 mph - N/A   Clear
11:30 AM 59.0 °F - 44.6 °F 59% 29.98 in - South 18.4 mph - N/A   Clear
12:00 PM 59.0 °F - 44.6 °F 59% 29.95 in - South 18.4 mph - N/A   Clear
12:30 PM 59.0 °F - 42.8 °F 55% 29.95 in - South 19.6 mph - N/A   Clear
1:00 PM 59 °F - 45 °F 49% 29.93 in 6 mi SE 22.4 mph - -  
1:00 PM 59.0 °F - 42.8 °F 55% 29.92 in - South 21.9 mph - N/A   Clear
1:30 PM 59.0 °F - 44.6 °F 59% 29.89 in - South 26.5 mph 38.0 mph N/A   Clear
2:00 PM 59.0 °F - 42.8 °F 55% 29.89 in - South 25.3 mph 36.8 mph N/A   Clear
2:30 PM 59.0 °F - 42.8 °F 55% 29.86 in - South 24.2 mph 35.7 mph N/A   Clear
3:00 PM 57.2 °F - 44.6 °F 63% 29.83 in - South 24.2 mph 35.7 mph N/A   Clear
3:30 PM 57.2 °F - 42.8 °F 59% 29.83 in - South 27.6 mph 39.1 mph N/A   Clear
4:00 PM 55 °F - 43 °F 54% 29.80 in 6 mi SE 31.3 mph - -   Partly Cloudy
4:00 PM 57.2 °F - 41.0 °F 55% 29.80 in - South 21.9 mph 33.4 mph N/A   Clear
4:30 PM 59.0 °F - 41.0 °F 51% 29.80 in - SSW 28.8 mph 40.3 mph N/A   Clear
5:00 PM 57.2 °F - 41.0 °F 55% 29.80 in - SSW 23.0 mph 34.5 mph N/A   Clear
5:30 PM 57.2 °F - 42.8 °F 59% 29.80 in - South 21.9 mph 33.4 mph N/A   Clear
6:00 PM 55.4 °F - 42.8 °F 63% 29.80 in - South 20.7 mph 32.2 mph N/A   Clear
6:30 PM 55.4 °F - 44.6 °F 67% 29.77 in - SSW 24.2 mph 35.7 mph N/A   Clear
7:00 PM 54 °F - 47 °F 68% 29.80 in 6 mi South 17.9 mph - -   Partly Cloudy
7:00 PM 55.4 °F - 46.4 °F 72% 29.80 in - SW 23.0 mph 34.5 mph N/A   Clear
7:30 PM 53.6 °F - 48.2 °F 82% 29.86 in - SW 16.1 mph - N/A   Clear
8:00 PM 53.6 °F - 48.2 °F 82% 29.89 in - WNW 8.1 mph - N/A   Clear
8:30 PM 55.4 °F - 44.6 °F 67% 29.89 in - NW 28.8 mph 40.3 mph N/A   Clear
9:00 PM 55.4 °F - 44.6 °F 67% 29.89 in - WNW 23.0 mph 34.5 mph N/A   Clear
9:30 PM 55.4 °F - 44.6 °F 67% 29.89 in - NW 23.0 mph 34.5 mph N/A   Clear
10:00 PM 53.6 °F - 44.6 °F 72% 29.89 in - NW 29.9 mph - N/A   Clear
10:30 PM 53.6 °F - 44.6 °F 72% 29.89 in - WNW 23.0 mph - N/A   Clear
11:00 PM 53.6 °F - 44.6 °F 72% 29.89 in - WNW 17.3 mph - N/A   Clear
11:30 PM 51.8 °F - 42.8 °F 71% 29.89 in - WNW 16.1 mph - N/A   Clear